Location: Newark
(34.1333°N, 7.9667°W)
Time: 09:07:06
(UTC+00:00)

N. Korean satellite - Pass Details

Date: 05 October 2021
Orbit: 450 x 495 km, 97.3° (Epoch: 15 October)

Event Time Altitude Azimuth Distance (km) Brightness Sun altitude
Rises 05:08:48 0° 24° (NNE) 2,564 10.7 -17.5°
Reaches altitude 10° 05:11:05 10° 37° (NE) 1,685 9.9 -17.0°
Maximum altitude 05:14:13 27° 97° (E) 969 8.9 -16.4°
Drops below altitude 10° 05:17:22 10° 157° (SSE) 1,685 9.5 -15.7°
Sets 05:19:39 0° 169° (S) 2,565 10.3 -15.2°
